STARLINK-1680 (46558 NORAD) Tracking and Keplerian Element Data

This shows tracking and keplerian element data for the satellite.

Feedback or suggestion? Click here.




ElementValue
Catalog46558
NameSTARLINK-1680
Epoch Orbit440
Epoch Day303.25001157
Epoch Year2020
RAAN330.0944
Inclination53.0005
Eccentricity0.0001335
Argument of Perigee63.1502
Mean Anonmoly174.7415
Mean Motion15.62791639
Decay Rate-0.00052207
L11 46558U 20070AC 20303.25001157 -.00052207 00000-0 -56711-3 0 9997
L22 46558 53.0005 330.0944 0001335 63.1502 174.7415 15.62791639 4401

Live tracking and technical data element details for STARLINK-1680 (NORAD 46558). STARLINK-1680 can be tracked NOW for your location showing map with azimuth and elevation plus other details from your city location.

Track the satellite on the map from your city or location and see movement details for azimuth, elevation, latitude, longitude, range, height, and movement on the map or in text.







IsCatalogInMostPopularTable: catalog: 46558, numindb: 3
Update: records affected: 1



GetName: 46558 STARLINK-1680

Hit Count: updated at: Fri, 30 Oct 2020 01:14:59 GMT